Regional Weather Roundup
Issued by NWS Wakefield, VA

Home | Current Version | Previous Version | Graphics & Text | Print | Product List | Glossary On
Versions: 1 2 3 4 5 6 7 8 9 10 11 12 13 14 15 16 17 18 19 20 21 22 23 24 25 26 27 28 29 30 31 32 33 34 35 36 37 38 39 40 41 42 43 44 45 46 47 48 49 50
000
ASUS41 KAKQ 280414
RWRAKQ

REGIONAL WEATHER ROUNDUP
NATIONAL WEATHER SERVICE WAKEFIELD VA
1200 AM EDT TUE APR 28 2015

Note: "fair" indicates few or no clouds below 12,000 feet with no
significant weather and/or obstructions to visibility. * = Denotes
station may not report precipitation (e.g., rain,snow,etc.),
thunder or fog.

VAZ042-051-052>054-056-280500-
NORTHERN VIRGINIA

CITY           SKY/WX    TMP DP  RH WIND       PRES   REMARKS
WASH NATIONAL  PTCLDY    52  37  56 NW14G21   29.90R
DULLES         PTCLDY    46  35  65 NW9       29.92R
FORT BELVOIR   CLEAR     50  36  59 NW15G22   29.91R
QUANTICO       CLEAR     50  34  54 NW13G23   29.93R
FREDERICKSBRG* CLEAR     51  35  55 NW12G17   29.92R
STAFFORD*      CLEAR     47  33  58 NW8       29.96R
WARRENTON      CLEAR     48  37  64 NW9G17    29.93R
CULPEPER*      CLEAR     50  36  57 NW10G16   29.94R
MANASSAS*      CLEAR     48  36  61 NW12      29.93R
LEESBURG*      PTCLDY    46  37  71 NW10G17   29.93R
WINCHESTER     CLEAR     45  30  57 W14       29.94R
FRONT ROYAL*   FAIR      45  34  65 NW10G16   29.95R
LURAY*         MOCLDY    46  36  66 N5        29.96R
$$

VAZ048-049-060>072-079>083-280500-
CENTRAL AND SOUTH CENTRAL VIRGINIA

CITY           SKY/WX    TMP DP  RH WIND       PRES   REMARKS
RICHMOND       PTCLDY    52  34  50 N10       29.91R
CHESTERFIELD*  FAIR      52  28  40 N12       29.93R
PETERSBURG*    CLEAR     46  36  67 CALM      29.93R
HANOVER        CLEAR     50  34  54 VRB6      29.93R
TAPPAHANNOCK*  CLEAR     51  32  48 NW8       29.90R
QUINTON*       FAIR      51  35  55 NW9       29.90R
CHARLOTTSVILLE CLEAR     49  32  52 NW6G16    29.94R
GORDONSVILLE*  FAIR      48  33  54 N5        29.94R
ORANGE*        CLEAR     48  36  61 NW5       29.96R
LOUISA*        CLEAR     48  36  61 CALM      29.92R
BUMPASS*       FAIR      50  34  55 N8        29.92S
FARMVILLE*     PTCLDY    49  34  56 CALM      29.93R
CREWE*         FAIR      45  35  67 CALM      29.92R
FORT PICKETT*  FAIR      43  35  73 NW6       29.92S
CHASE CITY*    FAIR      44  40  86 CALM      29.94S
CLARKSVILLE*   FAIR      46  34  61 CALM      29.93S
SOUTH HILL*    CLEAR     46  34  63 N5        29.98S
LAWRENCEVILLE* FAIR      47  37  69 CALM      29.91S
EMPORIA*       PTCLDY    43  37  81 CALM      29.93S
$$

VAZ088>098-280500-
SOUTHEAST VIRGINIA

CITY           SKY/WX    TMP DP  RH WIND       PRES   REMARKS
NORFOLK        CLEAR     54  34  46 VRB3      29.87R
VIRGINIA BEACH PTCLDY    52  37  56 NW7       29.86R
NORFOLK NAVAL  CLEAR     55  37  50 NW7       29.89R
WEST POINT*    CLEAR     53  35  50 NW7       29.91R
SALUDA*        FAIR      53  38  56 NW12G24   29.88R
NEWPORT NEWS   CLEAR     51  35  54 NW8       29.89R
LANGLEY AFB    CLEAR     46  37  73 W5        29.87R
FORT EUSTIS    CLEAR     54  37  53 NW12      29.87R
WILLIAMSBURG*  CLEAR     52  39  62 NW7       29.90R
HR EXEC AP*    FAIR      39  36  87 NW5       29.90R
FRANKLIN*      PTCLDY    45  39  81 W3        29.91R
WAKEFIELD      CLEAR     43  38  82 CALM      29.91R
$$

VAZ020-022-025-037-045-280500-
WEST CENTRAL AND SOUTHWEST VIRGINIA

CITY           SKY/WX    TMP DP  RH WIND       PRES   REMARKS
STAUNTON*      MOCLDY    44  35  71 CALM      29.97R
WAYNESBORO*    CLOUDY    44  32  63 N5        29.94R
HOT SPRINGS VA MOCLDY    37  30  76 NW8G16    29.91R
LYNCHBURG      CLEAR     43  33  68 W3        29.96R
DANVILLE       CLEAR     41  35  79 SE3       29.95F
SOUTH BOSTON*  FAIR      46  33  61 NW3       29.94R
MARTINSVILLE   CLEAR     38  35  86 CALM      29.98S
ROANOKE        CLEAR     49  33  54 NW10      29.97R
BLACKSBURG     CLEAR     43  32  64 NW6       29.99S
DUBLIN*        CLOUDY    47  34  59 CALM      29.98R
MARION*        MOCLDY    41  34  75 CALM      30.00S
HILLSVILLE*    PTCLDY    43  31  61 W3        29.95F
RICHLANDS*     CLOUDY    46   6  19 CALM      29.98S
WISE*          PTCLDY    45  30  57 CALM      30.00R
ABINGDON*      CLEAR     43  35  74 CALM      29.97F
$$

MDZ021>025-VAZ099-100-280500-
SOUTHERN MARYLAND AND THE DELMARVA PENINSULA

CITY           SKY/WX    TMP DP  RH WIND       PRES   REMARKS
PATUXENT RIVER CLEAR     52  38  58 NW17G25   29.86R
BAY BRIDGE APT   N/A    N/A N/A N/A NW17G24   29.86R
LEONARDTOWN    CLEAR     50  36  57 W9        29.89R
DOVER          PTCLDY    50  38  64 W12       29.76S
GEORGETOWN     MOCLDY    50  36  58 W8        29.81R
EASTON         CLEAR     52  41  66 NW10G21   29.88R
CAMBRIDGE      CLEAR     54  37  54 NW10G17   29.84R
SALISBURY      CLEAR     50  36  58 NW9       29.82R
OCEAN CITY     CLEAR     49  35  58 NW6       29.80S
WALLOPS ISLAND CLEAR     51  37  58 NW10      29.83R
ACCOMACK*      CLEAR     54  19  26 NW15G24   29.84R
$$

NCZ012>017-030>032-280500-
NORTH CENTRAL AND EASTERN NORTH CAROLINA

CITY           SKY/WX    TMP DP  RH WIND       PRES   REMARKS
ROANOKE RAPIDS FAIR      45  39  81 CALM      29.91S
RALEIGH        PTCLDY    52  32  46 CALM      29.93F
ELIZABETH CITY CLEAR     48  39  71 W8        29.88R
AHOSKIE*       CLEAR     44  40  85 CALM      29.91S
EDENTON*       PTCLDY    52  42  68 N3        29.89R
CURRITUCK*     CLEAR     51  41  70 W3        29.88R
KILL DEVIL HLS PTCLDY    54  44  68 CALM      29.86R
MANTEO         CLOUDY    54  41  61 CALM      29.87S
CAPE HATTERAS  PTCLDY    52  38  58 N5        29.87R
TARBORO*       FAIR      45  42  89 CALM      29.92S
GOLDSBORO      CLEAR     56  35  45 CALM      29.90R
WASHINGTON     CLEAR     49  40  71 CALM      29.90S
GREENVILLE     CLEAR     50  41  71 CALM      29.93S
NEW BERN       CLOUDY    58  39  49 N9        29.91R
WILMINGTON     PTCLDY    57  43  59 N7        29.90R
$$

VAZ048-280500-
ELSEWHERE

CITY           SKY/WX    TMP DP  RH WIND       PRES   REMARKS
HARRISBURG PA  MOCLDY    51  34  52 NW14      29.86R
BALTIMORE      PTCLDY    48  37  65 W9        29.86S
ANNAPOLIS      PTCLDY    51  38  60 NW9       29.86R
ANDREWS AFB    CLEAR     50  37  62 NW16G22   29.88R
PHILADELPHIA   CLOUDY    53  33  46 NW10      29.80S
HENDERSON NC   CLEAR     49  31  48 NW5       29.93S
GREENSBORO     CLEAR     46  35  65 N3        29.93F
ROCKY MOUNT    CLEAR     48  41  76 CALM      29.92S
$$

VAZ100-280500-
MARINE

STATION/POSITION TIME  TEMP    WIND        PRES    WAVE   SWELL
                       AIR SEA DIR/SP/G            HT/PER HT/PER
                 (UTC) (F)     (DEG/KT/KT) (MB)    (FT/S) (FT/S)
BRANDYWINE LGT   0306   53 53  320/ 15/ 20 1008.4R
CAPE MAY NJ      0300   54 57  310/ 11/ 17 1007.8R
LEWES DE         0300   52 53  290/ 11/ 13 1008.4R
15NM E FENWICK I 0350   51 48              1008.0R   2/10
OCEAN-CITY-INLET 0306   52 53  310/  7/ 11 1008.5R
WACHAPREAGUE VA  0300   54 60  300/  2/  7 1010.1R
THOMAS POINT MD  0400   51 53  310/ 15/ 17 1011.7R
GOOSES REEF MD   0400   52 53  320/ 17/ 21   N/A     2/ 2
COVE POINT MD    0300   53     320/ 11/ 15 1011.3R
SOLOMONS ISLAND  0306      55                N/A
BISHOPS HEAD MD  0300   54 58  330/ 12/ 17 1009.9R
PINEY POINT MD   0300          340/ 21/ 23   N/A
CAMBRIDGE MD     0300   54 58  310/ 17/ 24 1009.9R
LEWISETTA VA     0300   55 58              1010.8R
RAPPAHANNOCK LGT 0300          300/ 14/ 16 1010.9R
YORK RVR RNG VA  0306   54     320/ 10/ 11 1010.4S
YORKTOWN VA      0306   53 60  270/  6/  6 1010.7S
JAMESTOWN VA     0400   54 62  340/ 10/ 14 1011.4R
DOMINION TERM VA 0300   57      70/  1/  3 1011.1R
KIPTOPEKE VA     0300      62  320/ 13/ 17   N/A
CHES BAY BRIDGE  0306   57 58  320/ 14/ 17 1010.4S
CAPE HENRY VA    0300   57     320/ 17/ 19 1009.5R
CHESAPEAKE LGHT  0300   56     330/ 19/ 21 1011.1R
WILLOUBY STN VA  0300   56     330/  7/  8 1011.5S
S CRANEY ISL VA  0306          330/  5/  7 1010.9R
CAPE HENRY BUOY  0328      52                N/A     3/ 8
OFFSHORE WE BUOY 0311      51                N/A     3/ 8   2/ 8
64NM E OF VA BCH 0350   55 56  310/ 17/ 19 1009.4S   2/ 8   2/ 8
DUCK PIER NC     0306   55 54  290/  5/  7 1009.8R
44056 DUCK FRF   0311      55                N/A     2/ 8
OREGON INLET NC  0300   53 58  310/  3/  4 1010.8R
HATTERAS NC      0306   58 64   10/  8/  9 1010.6R
DIAMOND SHLS NC  0350   61 74   10/ 16/ 19 1011.1R   3/ 8   2/ 8
CAPE LOOKOUT NC  0400   59      20/  7/  8 1011.3R
$$


USA.gov is the U.S. government's official web portal to all federal, state and local government web resources and services.